Location: Unspecified
(0.0000°N, 0.0000°E)
Time: 04:32:18
(UTC+00:00)

deb Delta 104 - Pass Details

Date: 12 March 2026
Orbit: 1339 x 1584 km, 100.8° (Epoch: 15 April)

Event Time Altitude Azimuth Distance (km) Brightness Sun altitude
Exits shadow 19:50:24 12° 144° (SE) 3,643 ? -25.1°
Drops below altitude 10° 19:51:06 10° 148° (SSE) 3,787 ? -25.3°
Sets 19:55:07 0° 164° (SSE) 4,777 ? -26.3°
